星链-3607 (STARLINK-3607 )

导读

STARLINK-3607是美国太空探索技术公司(SpaceX)星链星座的一颗卫星,于2022年2月25日发射。星链项目旨在构建全球卫星互联网星座,为全球偏远地区、海洋、航空等场景提供高速互联网接入服务。该卫星入轨后,会与其他星链卫星组网,进一步扩大星座覆盖范围,提升服务能力。

Basic Information
目录编号:
51809
目录名称:
STARLINK-3607
国际标识:
2022-017AT
轨道中心:
EARTH
卫星名称:
星链-3607
卫星全名:
星链-3607 (STARLINK-3607 )
卫星状态:
在轨 (已飞行1652 天)
发射日期:
2022-02-25 UTC
国别 :
美国 (US)
星等 :
--
Orbit Information
数据来源 国际轨道数据
星历时间: 2026-09-04T14:57:08+0800
6小时前
查看轨道信息
半长轴: 6843.367km
偏心率: 0.0001237
轨道倾角: 53.160°
近地点辐角 85.199°
升交点赤经 247.730°
平近点角 274.916°
近地点: 464.383km
远地点: 466.077km
周期: 93.900分钟
每日圈数: 15.335506
Detailed Information
固有亮度:
5
最大亮度:
2.5
卫星平台:
Starlink v1.5
覆盖范围:
全球
运营商:
太空探索技术公司
运营商所在国:
美国
制造商(研发单位):
太空探索技术公司
制造商所在国:
美国
使用方式:
暂无
Satellite Introduction
星链(Starlink)计划是由太空探索技术公司(SpaceX)提出的一个巨型低轨卫星互联网星座项目,计划在2019年至2024年间在太空搭建由约1.2万颗卫星组成的“星链”网络,其中1584颗将部署在地球上空550千米处的近地轨道,并从2020年开始工作。该卫星仍在工作。
2D Orbit Map
3D Orbit Map
Orbit Altitude Analysis Chart
Orbit Inclination Analysis Chart
Orbit Comprehensive Analysis Chart
View Comprehensive Chart
Conjunction Data List
Event ID Objects TCA Miss Dist (km) Collision Risk Probability Collision Risk Index (CRI) Action
CDM_260906-082805-180906-881821
2026-09-06T
08:28:25+0000
2.282 km
极远距离
2.036866E-6 低风险 0.41
CDM_260904-110005-180906-861421
2026-09-04T
11:00:43+0000
2.351 km
极远距离
1.957369E-6 低风险 0.41
CDM_260906-153605-180906-866521
2026-09-06T
15:36:13+0000
2.327 km
极远距离
1.858061E-6 低风险 0.4
CDM_260906-060805-180906-544221
2026-09-06T
06:08:33+0000
2.460 km
极远距离
1.749245E-6 低风险 0.4
CDM_260905-150605-180906-532621
2026-09-05T
15:06:43+0000
2.598 km
极远距离
1.443215E-6 低风险 0.38
CDM_260906-131505-180906-866521
2026-09-06T
13:15:21+0000
2.800 km
极远距离
1.355937E-6 低风险 0.38
CDM_260905-150105-180906-472421
2026-09-05T
15:01:14+0000
2.964 km
极远距离
1.218485E-6 低风险 0.37
CDM_260904-213005-180906-615021
2026-09-04T
21:30:28+0000
2.570 km
极远距离
1.031172E-6 低风险 0.35
CDM_260906-162005-180906-585721
2026-09-06T
16:20:22+0000
2.717 km
极远距离
9.694309E-7 极低风险 0.35
CDM_260830-020705-180906-586621
2026-08-30T
02:07:12+0000
2.924 km
极远距离
8.829396E-7 极低风险 0.34